Preview of NWS' New Version of Forecast
This preview is not operational and should not be used for support decisions.
Latest weather observations around

Cincinnati, Cincinnati Municipal Airport Lunken Field (KLUK)

Using International System of Units (Switch to English Units)
Date/ Time (EDT) Wind (kph) Vis. (km) Weather Sky Cond. Temp (°C) Rel. Humidity Wind Chill (°C) Heat Index (°C) Pressure Precip. (cm)
Air Dwpt 6 hour Altimeter (hPa) Sea level (hPa) 1 hr 3 hr 6 hr
Max Min
Sep 23 04:53 SSW 18 16.09 Light Rain FEW055 BKN080 21 18     84%     1014.9 1014.2 0 0  
Sep 23 03:53 SSW 15 16.09 Light Rain SCT090 OVC110 22 17     71%   22 1014.6 1014 0    
Sep 23 02:53 SW 9 16.09 Cloudy SCT065 OVC100 24 14     55%   24 1014.9 1014.4      
Sep 23 01:53 SSW 17 16.09 Cloudy OVC085 24 14     54%   24 1015.2 1014.5      
Sep 23 00:53 S 17 16.09 Mostly Cloudy BKN075 24 14     54%   24 1015.2 1014.7      
Sep 22 23:53 SSW 15 16.09 Clear CLR 24 14     54%   24 1015.6 1015      
Sep 22 22:53 SSW 18 16.09 Clear CLR 26 13     47%   25 1015.6 1015      
Sep 22 21:53 SSW 18 16.09 Clear CLR 24 14     54%   24 1015.6 1015.2      
Notice The following observation data may not be complete
Sep 22 20:53 SW 5 16.09 Clear     16      %     1015.6 1015.1      
Notice The following observation data may not be complete
Sep 22 19:53 S 11 16.09 Clear CLR   15      %     1015.2 1014.9      
Sep 22 18:53 S 15 16.09 Clear CLR 28 14     44%   28 1015.2 1014.7      
Sep 22 17:53 SSW 22 16.09 Clear CLR 29 14     40%   29 1015.6 1014.9      
Sep 22 16:53 SSW 21 16.09 Clear CLR 31 14     37%   30 1015.9 1015.5      
Sep 22 15:53 SW 18 16.09 Mostly Clear FEW075 32 14     35%   31 1016.3 1015.9      
Sep 22 14:53 SW 18 16.09 Clear CLR 31 14     35%   30 1017.3 1016.7      
Sep 22 13:53   16.09 Clear CLR 31 14     36%   31 1018 1017.4      
Sep 22 12:53 SSW 24 16.09 Clear CLR 30 15     40%   30 1019.3 1018.6      
Sep 22 11:53 SSW 22 16.09 Clear CLR 29 16     43%   29 1020 1019.6      
Sep 22 10:53 S 8 16.09 Clear CLR 26 17     58%   26 1020.7 1020.3      
Sep 22 09:53 S 8 16.09 Clear CLR 22 17     71%   22 1021.3 1020.9      
Sep 22 08:53 Calm 16.09 Clear CLR 19 18     96%     1021.3 1020.9      
Sep 22 07:53 Calm 9.66 Patchy Fog FEW002 17 17     100%     1021 1020.8      
Sep 22 06:53 Calm 9.66 Patchy Fog FEW002 17 16     96%     1021.3 1020.8      
Sep 22 06:45 Calm 0.4 Fog CLR 17 17     100%     1021        
Sep 22 06:38 Calm 1.21 Fog/Mist VV003 17 17     100%     1021        
Sep 22 06:36 Calm 2.41 Fog/Mist FEW003 17 16     96%     1021        
Notice The following observation data may not be complete
Sep 22 06:30 Calm 6.44 Fog/Mist FEW003   16      %     1021        
Notice The following observation data may not be complete
Sep 22 06:28 Calm 2.01 Fog/Mist FEW003   16      %     1021        
Sep 22 06:20 Calm 0.4 Fog VV003 17 16     96%     1021        
Sep 22 06:10 Calm 0.4 Fog CLR 17 17     100%     1021        
Sep 22 06:02 Calm 2.41 Fog/Mist CLR 17 17     100%     1020.7        
Sep 22 05:53 Calm 6.44 Fog/Mist CLR 18 17     96%     1020.7 1020      
Sep 22 04:53 Calm 8.05 Fog/Mist CLR 18 17     96%     1020.7 1020.1      
Sep 22 04:40 Calm 4.83 Fog/Mist CLR 17 17     100%     1020.7        
Sep 22 04:34 Calm 1.61 Fog/Mist CLR 17 17     100%     1020.7        
Sep 22 04:25 Calm 4.02 Fog/Mist CLR 17 17     100%     1020.7        
Sep 22 04:13 Calm 4.83 Fog/Mist CLR 17 17     100%     1020.7        
Sep 22 03:58 Calm 2.41 Fog/Mist CLR 18 17     96%     1021        
Sep 22 03:53 Calm 6.44 Fog/Mist CLR 17 17     100%     1021 1020.5      
Sep 22 03:31 Calm 4.83 Fog/Mist CLR 18 17     96%     1021.3        
Sep 22 03:20 Calm 4.02 Fog/Mist CLR 18 17     96%     1021        
Sep 22 03:09 Calm 2.01 Fog/Mist CLR 18 18     100%     1021.3        
Sep 22 02:53 Calm 4.02 Fog/Mist CLR 18 18     100%     1021 1020.5      
Sep 22 02:29 Calm 4.02 Fog/Mist CLR 18 18     100%     1021        
Sep 22 02:21 Calm 4.83 Fog/Mist CLR 18 18     100%     1021        
Sep 22 02:11 Calm 4.02 Fog/Mist CLR 18 18     100%     1021        
Sep 22 01:53 Calm 6.44 Fog/Mist CLR 18 18     97%     1021 1020.4      
Sep 22 00:53 Calm 11.27 Clear CLR 19 18     93%     1021.3 1020.7      
Sep 21 23:53 Calm 14.48 Clear CLR 19 18     93%     1021.3 1020.7      
Notice The following observation data may not be complete
Sep 21 22:53 Calm 16.09 Clear CLR   18      %     1021.3 1021      
Notice The following observation data may not be complete
Sep 21 21:53 Calm 16.09 Clear CLR   18      %     1021.3 1021.1      
Notice The following observation data may not be complete
Sep 21 20:53 Calm 16.09 Clear CLR   18      %     1021.3 1020.8      
Notice The following observation data may not be complete
Sep 21 19:53 Calm 16.09 Clear CLR   19      %     1021 1020.6      
Sep 21 18:53 SSW 8 16.09 Clear CLR 28 17     53%   28 1020.7 1020.3      
Sep 21 17:53 SSW 17 16.09 Clear CLR 30 17     45%   30 1021 1020.4      
Sep 21 16:53 SW 17 16.09 Mostly Clear FEW070 30 16     43%   30 1021 1020.6      
Sep 21 15:53 SSW 18 16.09 Mostly Clear FEW065 32 17     41%   32 1021.7 1021.1      
Sep 21 14:53 SW 15 16.09 Mostly Clear FEW060 31 17     43%   32 1022.4 1021.8      
Sep 21 13:53 S 18 16.09 Partly Cloudy SCT075 32 18     44%   32 1023 1022.4      
Sep 21 12:53 9 16.09 Mostly Clear FEW080 30 18     48%   31 1023.7 1023.2      
Sep 21 11:53 W 18 16.09 Mostly Clear FEW080 29 18     53%   30 1024.4 1023.8      
Sep 21 10:53 S 8 16.09 Mostly Cloudy BKN080 26 19     67%   27 1024.7 1024.3      
Sep 21 09:53   16.09 Mostly Clear FEW100 25 19     71%   25 1024.7 1024.2      
Sep 21 08:53 NNE 8 12.87 Mostly Cloudy BKN100 22 20     90%   22 1024.4 1024      
Sep 21 07:53 Calm 12.87 Partly Cloudy SCT065 20 19     96%     1024.1 1023.6      
Sep 21 06:53 Calm 11.27 Partly Cloudy SCT075 SCT100 19 19     97%     1023.7 1023.4      
Sep 21 05:53 Calm 6.44 Fog/Mist SCT060 SCT075 19 19     100%     1023.4 1022.8      
Sep 21 05:35 Calm 4.83 Fog/Mist CLR 19 19     100%     1023        
Sep 21 05:24 Calm 2.82 Fog/Mist FEW075 19 19     100%     1023        
Sep 21 05:09 Calm 8.05 Fog/Mist FEW075 19 19     97%     1023        
Sep 21 05:02 Calm 4.02 Fog/Mist SCT075 19 19     100%     1023        
Sep 21 04:53 Calm 0.8 Fog CLR 19 19     100%     1023 1022.5      
Sep 21 04:47 Calm 2.41 Fog/Mist CLR 19 19     100%     1023        
Sep 21 04:22 Calm 4.83 Fog/Mist CLR 20 20     100%     1022.7        
Sep 21 04:13 Calm 2.82 Fog/Mist CLR 19 19     100%     1022.7        
Sep 21 03:53 Calm 9.66 Fog/Mist CLR 19 19     97%     1022.7 1022.2      
Sep 21 02:53 Calm 6.44 Fog/Mist CLR 19 19     100%     1022.7 1022.1      
Sep 21 01:53 Calm 11.27 Clear CLR 20 19     96%     1022.7 1022.1      
Sep 21 00:53 Calm 14.48 Mostly Clear FEW055 21 20     93%     1022.4 1021.9      
Sep 20 23:53 Calm 16.09 Partly Cloudy FEW060 SCT090 21 20     93%     1022.7 1022.1      
Sep 20 22:53 Calm 16.09 Mostly Cloudy SCT060 BKN080 22 20     90%   22 1022.4 1021.8      
Sep 20 21:53 Calm 16.09 Clear CLR 23 19     81%   23 1022 1021.7      
Sep 20 20:53 S 11 16.09 Clear CLR 23 19     79%   24 1021.3 1021      
Sep 20 19:53 S 9 16.09 Clear   24 19     76%   24 1021 1020.6      
Sep 20 18:53 S 17 16.09 Clear CLR 27 20     65%   29 1020.3 1020.1      
Sep 20 17:53 SSW 17 16.09 Clear   29 19     53%   31 1020.3 1019.8      
Sep 20 16:53 S 18 16.09 Partly Cloudy SCT047 30 20     55%   32 1020.3 1020      
Sep 20 15:53 SSW 17 16.09 Partly Cloudy SCT075 29 19     55%   31 1020.7 1020.1      
Sep 20 14:53 S 9 16.09 Mostly Clear FEW070 29 20     57%   31 1021 1020.5      
Sep 20 13:53 SSW 21 16.09 Mostly Clear FEW070 29 20     59%   31 1021.7 1021      
Sep 20 12:53 SSW 15 16.09 Mostly Clear FEW075 28 19     60%   29 1022.4 1021.7      
Sep 20 11:53 S 18 16.09 Clear CLR 27 19     62%   28 1022.4 1021.9      
Sep 20 10:53 SSW 18 16.09 Partly Cloudy SCT085 SCT100 26 19     65%   26 1022.4 1022      
Sep 20 09:53 S 13 16.09 Partly Cloudy SCT085 SCT100 23 19     76%   24 1022.7 1022.1      
Sep 20 08:53 Calm 16.09 Mostly Clear FEW085 21 19     87%     1022.7 1022.1      
Sep 20 07:53 Calm 16.09 Mostly Clear FEW075 17 17     100%     1022 1021.6      
Sep 20 06:53 Calm 16.09 Clear CLR 18 18     97%     1021.7 1021.1      
Sep 20 05:53 Calm 11.27 Clear CLR 18 18     100%     1021.3 1020.8      
Sep 20 05:28 Calm 14.48 Clear CLR 18 18     97%     1021        
Sep 20 05:19 Calm 4.02 Fog/Mist CLR 18 18     97%     1021        
Sep 20 04:53 Calm 11.27 Partly Cloudy SCT065 18 18     100%     1021 1020.5      
Sep 20 03:53 Calm 16.09 Clear CLR 19 18     93%     1020.7 1020.1      
Sep 20 02:53 Calm 16.09 Clear CLR 19 18     93%     1020.3 1019.8      
May 14 18:53 SW 18 16.09 Mostly Clear FEW070 29 18     51%   30 1011.9 1011.3      
Notice The following observation data may not be complete
May 14 05:19 Calm 2.82 Fog/Mist CLR   18      %     1015.9        
May 12 20:53 Calm 16.09 Clear CLR 24 19     74%   25 1015.9 1015.3      
Notice The following observation data may not be complete
May 12 00:53 WSW 8 16.09 Clear CLR   17      %     1015.6 1015.3      
May 11 16:53   16.09 Mostly Clear FEW075 29 16     45%   30 1013.2 1012.7      
Jun 11 12:53   16.09 Mostly Clear FEW060 30 18     48%   31 1020 1019.5      
Jun 10 18:53 S 22 16.09 Clear CLR 28 17     51%   28 1015.6 1015      
Jun 10 15:53 SSW 22 16.09 Clear CLR 29 17     48%   29 1016.3 1015.8      
Jun 10 14:53 SSW 17 16.09 Clear CLR 28 14     43%   28 1016.6 1016.1      
Jun 10 11:53 SSW 18 16.09 Clear CLR 27 16     52%   27 1017.6 1017.2      
Notice The following observation data may not be complete
Jun 09 06:24 Calm 1.21 Fog/Mist CLR   9      %     1013.6        
Jun 08 05:14 Calm 6.44 Fog/Mist CLR 10 10     100%     1016.6        
Jun 07 12:53 NE 15 16.09 Clear   18 12     70%     1016.9 1016.6      
Jun 05 17:37 SSW 9 16.09 Clear CLR 20 18     90%     1006.8   0